Lid_Strength_Index
4 4 4 5 5 4 4 4 4 4 4 4 4 4 4 4 5 5 7 6 6 8 9 8 8 9 9 8 10 8 8 8 8 10 10 11 12 11 11 11 13 13 14 14 13 15 17 13 12 14 14 13 13 13
4 4 4 4 4 5 4 4 4 4 4 4 4 4 4 5 5 4 7 6 4 7 9 6 7 6 7 6 6 7 7 7 6 8 8 9 12 11 11 14 11 14 13 13 15 15 14 13 13 11 12 12 12 13
4 4 4 4 3 4 4 4 4 4 4 4 4 4 4 5 5 4 6 5 5 7 8 7 8 5 3 4 3 7 5 5 6 3 7 8 11 9 12 11 13 13 12 14 14 15 14 13 12 12 11 12 12 13
3 4 4 4 4 4 4 4 4 4 4 4 4 4 4 4 4 4 5 5 4 7 10 9 5 5 4 3 3 3 4 4 3 3 6 8 10 7 10 10 10 11 12 14 16 15 14 14 13 12 12 12 13 13
3 3 4 4 4 4 4 4 4 4 4 4 4 4 4 4 3 3 3 4 4 6 10 8 5 5 4 3 4 3 4 4 4 6 7 9 7 8 7 9 10 10 12 13 13 13 13 13 12 12 13 13 13 14
3 3 4 4 4 4 4 4 4 4 4 4 3 3 4 5 5 3 7 4 3 3 7 10 6 6 5 4 4 4 4 4 3 4 7 7 5 7 10 10 11 11 11 11 12 11 11 12 12 11 12 13 12 13
3 4 3 3 3 3 4 4 4 3 3 3 3 3 2 3 3 6 7 4 4 2 6 10 9 6 5 4 4 4 4 4 3 4 5 6 6 6 8 10 12 11 11 11 11 12 13 12 13 12 12 12 12 13
3 3 3 3 3 3 3 3 3 3 3 3 3 3 3 3 3 5 4 4 3 5 5 10 10 8 4 6 7 3 4 4 4 4 5 6 6 5 10 12 11 11 11 11 11 11 11 11 12 12 11 12 13 14
3 3 3 3 3 2 3 3 3 3 4 4 4 4 3 4 5 5 4 4 2 4 8 8 11 11 5 6 4 5 4 7 4 6 6 6 7 10 9 11 12 12 11 12 12 11 11 12 12 12 12 13 13 15
3 3 3 3 2 3 3 3 3 4 4 4 4 6 9 5 4 4 4 6 6 5 5 8 6 9 5 6 6 6 5 7 9 7 5 8 8 8 8 8 9 10 10 10 12 13 12 13 13 13 13 12 13 14
3 3 3 3 2 2 3 3 4 3 3 4 6 8 4 4 4 6 10 9 8 10 7 7 8 8 4 7 8 5 8 7 11 10 9 10 10 8 8 8 8 9 10 10 9 10 10 11 12 13 13 13 14 15
3 2 2 3 3 3 3 3 3 3 4 4 4 3 4 6 9 11 12 10 10 11 8 8 7 6 5 3 6 6 9 8 13 7 10 11 9 8 8 8 8 8 10 11 10 10 10 11 11 12 13 14 15 16
3 3 3 2 3 3 3 3 3 3 3 3 5 8 8 10 13 13 15 12 11 9 8 7 8 5 5 4 7 8 11 11 6 11 11 9 8 9 8 8 9 9 9 10 11 11 11 12 12 13 14 16 18 18
3 3 3 3 3 3 3 4 4 4 4 8 9 13 12 13 12 11 10 9 9 7 7 6 7 6 6 8 8 11 9 8 12 13 13 8 9 9 9 9 9 10 10 11 11 12 13 14 15 16 17 18 19 20
3 3 3 3 3 4 4 4 4 3 6 9 9 13 12 10 9 9 9 8 8 6 6 7 7 6 8 10 8 10 12 13 11 11 9 8 9 9 10 10 10 11 12 12 12 14 15 17 17 19 19 18 19 20
3 3 4 4 4 4 5 5 4 4 7 8 9 10 9 9 9 8 8 8 6 5 5 5 9 10 12 9 11 13 12 13 10 8 8 9 10 10 10 10 10 11 11 12 13 14 16 17 18 18 19 19 19 19
3 5 4 4 5 5 5 5 5 8 9 9 10 9 8 8 9 8 6 6 4 5 9 7 11 12 9 11 13 9 10 9 8 8 7 9 10 10 11 11 12 13 13 14 15 15 16 17 19 19 19 19 18 18
5 4 4 5 5 6 6 6 7 8 11 9 9 9 8 8 7 7 6 5 5 6 7 8 7 10 11 12 10 8 7 8 9 8 8 10 10 11 11 12 13 13 14 15 15 17 18 18 17 16 16 17 16 16
4 4 4 4 5 6 8 8 7 11 10 8 8 7 7 7 7 6 6 6 5 5 5 7 9 9 9 7 8 8 8 8 9 9 10 10 10 12 12 13 13 14 15 16 16 15 15 15 14 14 14 15 14 14
4 3 4 4 4 7 10 10 6 9 10 9 8 8 8 8 8 7 6 7 6 6 7 8 8 6 6 5 5 5 5 7 8 9 10 10 11 12 12 12 12 13 14 14 14 15 15 15 14 14 14 14 13 13
4 4 4 4 5 5 7 9 10 9 9 10 9 9 9 8 8 8 7 7 7 7 7 5 6 6 8 7 6 6 7 7 7 6 7 10 11 10 11 11 12 12 12 13 13 14 14 13 13 13 13 12 12 12
4 4 4 5 7 7 8 7 8 8 8 9 9 9 10 10 9 9 7 7 7 6 5 5 5 6 7 8 7 7 8 8 9 10 11 10 11 11 11 11 11 12 11 11 12 13 12 12 12 12 12 12 13 13
4 5 6 8 10 10 11 6 9 9 11 10 9 11 11 10 9 7 9 7 6 6 6 6 7 7 7 8 8 8 8 8 8 9 10 9 9 9 10 11 10 11 12 11 11 12 12 12 12 12 13 13 14 15
5 8 10 11 10 13 10 10 8 9 9 10 10 13 11 10 9 10 10 7 7 8 8 8 7 8 8 9 7 8 8 8 9 9 9 10 10 11 10 11 11 10 10 11 12 12 12 12 14 13 14 14 14 15
9 11 10 14 10 12 12 11 11 11 12 12 12 11 11 9 10 11 10 7 8 8 8 9 7 7 7 7 8 9 10 8 9 10 10 9 10 11 11 11 11 11 11 11 12 13 13 13 13 14 14 14 15 16
13 12 11 12 12 12 12 13 12 12 11 12 11 9 9 10 11 11 9 8 8 8 9 9 8 7 8 8 9 10 11 9 9 9 10 9 9 10 11 12 13 13 11 11 12 13 14 14 14 14 15 16 18 17
13 12 10 9 9 10 11 10 10 10 12 12 10 10 10 13 12 9 8 9 8 9 9 9 9 7 7 9 10 10 10 9 9 9 10 10 10 9 9 11 12 11 11 11 12 12 14 14 15 15 16 17 17 18
10 10 12 10 10 9 11 11 11 11 9 8 9 11 12 11 10 8 8 9 9 9 9 9 9 9 8 10 10 10 11 12 12 12 11 12 12 12 12 11 11 12 11 12 12 12 13 14 15 17 17 19 20 19
11 9 9 12 10 9 9 9 9 8 8 8 9 9 9 9 10 9 10 10 10 10 9 9 10 10 10 10 10 10 10 10 11 12 13 13 13 14 13 13 13 14 14 15 14 14 14 15 16 18 19 21 22 22
11 9 10 12 12 11 9 9 8 10 10 10 10 11 11 11 11 13 12 11 10 10 9 9 10 10 11 11 12 12 10 10 9 10 12 12 12 14 14 14 15 15 15 15 17 19 20 21 22 22 23 23 23 25
11 10 11 11 11 10 12 12 12 12 11 11 12 11 10 12 12 13 13 13 13 13 12 11 11 10 11 11 11 12 12 11 11 11 11 13 14 14 15 15 15 16 16 17 18 19 19 20 21 22 23 24 26 26
11 11 12 13 12 12 12 12 11 11 12 12 11 14 13 13 12 13 15 15 13 13 13 12 11 11 11 10 10 11 11 12 13 14 14 14 15 16 16 16 16 16 17 18 19 19 20 21 21 23 24 26 26 27
13 12 13 13 14 14 13 13 14 14 14 14 13 15 14 14 13 15 14 15 15 15 13 13 13 12 13 13 13 14 14 14 14 15 16 16 17 17 17 17 17 18 19 19 20 21 21 23 24 25 26 28 28 28